MET2565 - Kansas City to Amarillo

Bombardier Dash-8-Q200
837AG
1 hr 45 mins
414 nm
Scheduled - Daily

Bid/PiRep Status

Bid was submitted on October 2nd, 2016 23:44 UTC.
PiRep # 73559: Approved by Dave Nichols on October 5th, 2016 3:32 UTC

Departure

Departing from
Kansas City (MCI)
Departure gate
Scheduled Departure
GMT 1710
Local 1210
METAR KMCI 140453Z 31005KT 10SM FEW040 01/M03 A2996 RMK AO2 SLP147 T00111028 $
TAF KMCI 132323Z 1400/1424 32011KT P6SM SKC FM140300 34008KT P6SM SCT035 FM140600 34005KT P6SM BKN020 FM142100 30007KT P6SM SCT040 OVC100

Arrival

Arriving at
Amarillo (AMA)
Arrival gate
A2
Scheduled Arrival
GMT 1855
Local 1355

Route Map

Planning Resources

FRACA,ICT,GAG, KAMA
WLDCT2 V12 PNH
WLDCT2.ICT J26 PNH
KMCI KENTN ICT ZENDA GAG PNH KAMA
FRACA ICT GAG PNH KAMA
Route:
OFP Layout:
Units:
Detailed Navlog:
ETOPS Planning:
Plan Stepclimbs:
Runway Analysis:
Include NOTAMS:
FIR NOTAMS:
Flight Maps:

Popularity

Hub Current Bids PiReps this month Total PiReps
KLAX 0 0 1
KBOS 0 0 0
KDFW 0 0 0